Regional Weather Roundup
Issued by NWS Sioux Falls, SD

Home | Current Version | Previous Version | Text Only | Print | Product List | Glossary Off
Versions: 1 2 3 4 5 6 7 8 9 10 11 12 13 14 15 16 17 18 19 20 21 22 23 24 25 26 27 28 29 30 31 32 33 34 35 36 37 38 39 40 41 42 43 44 45 46 47 48 49 50

000
ASUS43 KFSD 031002
RWRFSD

WEATHER ROUNDUP FOR SE SOUTH DAKOTA/SW MINNESOTA/NW IOWA
NATIONAL WEATHER SERVICE SIOUX FALLS SD
400 AM CST TUE MAR 03 2015

NOTE: "FAIR" INDICATES FEW OR NO CLOUDS BELOW 12,000 FEET WITH NO
SIGNIFICANT WEATHER AND OR OBSTRUCTIONS TO VISIBILITY.


SDZ038>040-050-052>070-031100-
SOUTHEAST SOUTH DAKOTA

CITY           SKY/WX    TMP DP  RH WIND       PRES   REMARKS
CHAMBERLAIN    NOT AVBL
HURON          LGT SNOW  28  21  75 SE3       29.66F
MADISON        CLOUDY    23  23 100 S6        29.66F WCI  16
MITCHELL       CLOUDY    28  20  71 MISG      29.67F
SIOUX FALLS    CLOUDY    25  19  78 S9        29.67F WCI  15
WINNER         CLOUDY    30  22  72 W7        29.64S HAZE    WCI  23
YANKTON        CLOUDY    28  18  64 SE6       29.69F WCI  22
$$

MNZ071-072-080-081-089-090-097-098-031100-
SOUTHWEST MINNESOTA

CITY           SKY/WX    TMP DP  RH WIND       PRES   REMARKS
FAIRMONT       CLOUDY    25  18  74 SE13      29.75F WCI  13
JACKSON        CLOUDY    25  21  86 SE8       29.74F WCI  16
LUVERNE        CLOUDY    27  21  80 SE5       29.70F WCI  21
MARSHALL       CLOUDY    25  18  74 S10       29.73F WCI  15
MONTEVIDEO     CLOUDY    25  19  80 S7        29.76F WCI  17
PIPESTONE      CLOUDY    25  19  80 S7        29.68F WCI  17
REDWOOD FALLS  CLOUDY    23  18  81 SE12      29.77F WCI  12
TRACY          CLOUDY    25  21  84 S9        29.73F WCI  15
WINDOM         CLOUDY    23  19  86 SE8       29.73F WCI  14
WORTHINGTON    CLOUDY    23  18  80 SE8       29.72F WCI  14
$$

IAZ001>003-012>014-020>022-031-032-NEZ013-014-SDZ071-031100-
NORTHWEST IOWA

CITY           SKY/WX    TMP DP  RH WIND       PRES   REMARKS
DENISON        CLOUDY    30  25  80 S13       29.70F WCI  20
ESTHERVILLE    CLOUDY    23  19  85 SE10      29.75F WCI  12
SIOUX CITY     CLOUDY    30  21  69 SE7       29.69F WCI  23
SPENCER        CLOUDY    26  20  77 SE7       29.74F WCI  18
$$

ABBREVIATIONS USED IN REMARKS
   TC - TEMPERATURE IN CELSIUS
  WCI - WIND CHILL INDEX
   HX - HEAT INDEX
  VSB - VISIBILITY




USA.gov is the U.S. government's official web portal to all federal, state and local government web resources and services.